Hourly Data Report for June 12, 2021

FISHER BRANCH (AUT)
MANITOBA
Current Station Operator: ECCC - MSC

51°05'00.100" N
97°33'16.200" W
253.00 m
50309J6
71442
WSZ

Download Data

Hourly Data (June 2021)
Hourly Data Report for June 12, 2021
TIME
LST
Temp Definition
°C
Dew Point Definition
°C
Rel Hum Definition
%
Precip. Amount Definition
mm

Wind Dir Definition
10's deg

Wind Spd Definition
km/h
Visibility Definition
km
Stn Press Definition
kPa
Hmdx Definition


Wind Chill Definition


Weather Definition


00:00 16.2 15.0 93 0.0 26 18   97.03     LegendNANA
01:00 16.1 14.1 88 0.0 26 20   97.15     LegendNANA
02:00 15.3 14.1 92 0.3 27 14   97.25     LegendNANA
03:00 15.9 14.0 88 0.0 25 19   97.31     LegendNANA
04:00 15.7 13.1 84 0.0 25 21   97.39     LegendNANA
05:00 15.4 13.0 86 0.0 25 15   97.47     LegendNANA
06:00 15.2 12.1 82 0.0 24 16   97.54     LegendNANA
07:00 16.8 12.0 73 0.0 26 21   97.58     LegendNANA
08:00 17.6 11.5 67 0.0 27 23   97.66     LegendNANA
09:00 19.0 11.9 63 0.0 27 24   97.70     LegendNANA
10:00 20.4 9.6 50 0.0 28 28   97.73     LegendNANA
11:00 21.8 10.6 49 0.0 27 27   97.78     LegendNANA
12:00 22.7 7.3 37 0.0 27 31   97.82     LegendNANA
13:00 23.4 6.7 34 0.0 28 33   97.85     LegendNANA
14:00 24.0 6.4 32 0.0 26 34   97.90     LegendNANA
15:00 24.5 6.2 31 0.0 27 31   97.93     LegendNANA
16:00 24.8 4.1 26 0.0 26 31   97.96     LegendNANA
17:00 24.7 4.9 28 0.0 28 27   97.99     LegendNANA
18:00 24.3 5.5 30 0.0 27 25   98.01     LegendNANA
19:00 24.3 6.0 31 0.0 26 18   98.02     LegendNANA
20:00 22.3 7.6 39 0.0 26 10   98.04     LegendNANA
21:00 19.7 8.4 48 0.0 25 7   98.09     LegendNANA
22:00 15.8 9.9 68 0.0 20 5   98.12     LegendNANA
23:00 17.5 9.9 61 0.0 22 7   98.13     LegendNANA

Notes on Data Quality.

Legend

  • E = Estimated
  • M = Missing
  • NA = Not Available*
  • [empty] = Indicates an unobserved value
Date modified: